Regional Weather Roundup
Issued by NWS

Home | Current Version | Previous Version | Text Only | Print | Product List | Glossary On
Versions: 1 2 3 4 5 6 7 8 9 10 11 12 13 14 15 16 17 18 19 20 21 22 23 24 25 26 27 28 29 30 31 32 33 34 35 36 37 38 39 40 41 42 43 44 45 46 47 48 49 50
000
ASUS44 KOUN 201800
RWROK

WEATHER ROUNDUP FOR OKLAHOMA
NATIONAL WEATHER SERVICE NORMAN OK
100 PM CDT SAT SEP 20 2014

NOTE: "FAIR" INDICATES FEW OR NO CLOUDS BELOW 12,000 FEET WITH NO
      SIGNIFICANT WEATHER AND/OR OBSTRUCTIONS TO VISIBILITY.

OKZ001>007-009>012-014-015-017-201900-
NORTHWEST OKLAHOMA AND THE PANHANDLE

CITY           SKY/WX    TMP DP  RH WIND       PRES   REMARKS
GAGE           PTSUNNY   82  65  56 SW13      30.04S
6HR MIN TEMP:  64; 6HR MAX TEMP:  85;

ENID/WOODRING  PTSUNNY   90  68  48 SE13G21   30.01S HX  93
$$

OKZ016-021>023-033>039-044-045-201900-
SOUTHWEST OKLAHOMA

CITY           SKY/WX    TMP DP  RH WIND       PRES   REMARKS
LAWTON/REGL    MOSUNNY   86  68  54 SE9       30.02F
6HR MIN TEMP:  71; 6HR MAX TEMP:  86;

FREDERICK      CLOUDY    83  70  64 VRB3      30.00S
CLINTON        PTSUNNY   84  67  56 S14       30.06S
HOBART         CLOUDY    82  67  60 S12       30.04F
ALTUS AFB      PTSUNNY   84  70  62 S8        30.02F
$$

OKZ018>020-024>031-201900-
CENTRAL OKLAHOMA

CITY           SKY/WX    TMP DP  RH WIND       PRES   REMARKS
OKLAHOMA CITY  PTSUNNY   85  68  56 S8        30.04F
6HR MIN TEMP:  69; 6HR MAX TEMP:  85;

OKC/WILEY POST MOSUNNY   83  69  62 S8        30.04S
OKC/TINKER AFB PTSUNNY   83  67  58 SE9G18    30.04F
STILLWATER     PTSUNNY   86  69  56 S7        30.02F HX  90
GUTHRIE        MOSUNNY   84  69  60 S14       30.03F
$$

OKZ008-013-054>072-201900-
NORTHEAST OKLAHOMA

CITY           SKY/WX    TMP DP  RH WIND       PRES   REMARKS
TULSA          MOSUNNY   85  70  60 SW9G20    30.03F
6HR MIN TEMP:  69; 6HR MAX TEMP:  85;

TULSA/JONES    MOSUNNY   84  70  62 S10       30.03F
PONCA CITY     PTSUNNY   88  68  51 S12G17    30.00F HX  91
BARTLESVILLE   CLOUDY    82  73  74 VRB6      30.03F
MUSKOGEE       MOSUNNY   85  69  58 S12       30.06F
$$

OKZ032-040>043-046>053-073>077-201900-
SOUTH CENTRAL/SOUTHEAST OKLAHOMA

CITY           SKY/WX    TMP DP  RH WIND       PRES   REMARKS
MCALESTER      MOSUNNY   85  67  54 SE8       30.06F
$$




USA.gov is the U.S. government's official web portal to all federal, state and local government web resources and services.